This demonstration page uses our WeatherBlox Daily Observations layout. Learn more.

Left ArrowRight Arrow

Hourly Observations for March 12, 2020

Temp ( °F °C ) Dew Point ( °F °C ) Humidity (%) Winds ( mph kmh ) Pressure ( in mb ) Visibility ( mi km ) Precip ( " mm )
12:54 am 00:54 Clear 56 13.3 42 5.6 60 60 S 15 24 29.7 1006 10 16.0934 0 0
1:54 am 01:54 Clear 56 13.3 42 5.6 60 60 S 15 24 29.69 1005 10 16.0934 0 0
2:54 am 02:54 Partly Cloudy 56 13.3 42 5.6 60 60 S 13 20 29.65 1004 10 16.0934 0 0
3:54 am 03:54 Cloudy with Light Rain 57 13.9 45 7.2 64 64 S 22 35 29.63 1003 10 16.0934 0.001 0.001
4:54 am 04:54 Cloudy with Light Rain 56 13.3 45 7.2 67 67 W 13 20 29.67 1005 10 16.0934 0.001 0.001
5:54 am 05:54 Cloudy with Rain 54 12.2 49 9.4 83 83 SW 16 26 29.68 1005 5 8.0467 0.11 2.794
6:54 am 06:54 Cloudy 53 11.7 50 10 89 89 S 20 31 29.57 1002 10 16.0934 0.1 2.54
7:54 am 07:54 Sunny 52 11.1 48 8.9 86 86 Calm 29.59 1002 10 16.0934 0 0
8:54 am 08:54 Sunny 56 13.3 47 8.3 72 72 WNW 8 13 29.64 1004 10 16.0934 0 0
9:54 am 09:54 Sunny 49 9.4 38 3.3 66 66 NW 24 39 29.7 1006 10 16.0934 0 0
10:54 am 10:54 Sunny 52 11.1 40 4.4 64 64 NNW 28 44 29.74 1007 10 16.0934 0 0
11:54 am 11:54 Sunny 55 12.8 37 2.8 51 51 NNW 31 50 29.77 1008 10 16.0934 0 0
12:54 pm 12:54 Sunny 58 14.4 38 3.3 48 48 undefined N/A 29.8 1009 10 16.0934 0 0
1:54 pm 13:54 Cloudy 58 14.4 38 3.3 48 48 undefined N/A 29.82 1010 10 16.0934 0 0
2:54 pm 14:54 Mostly Cloudy 55 12.8 36 2.2 49 49 NNW 24 39 29.85 1011 10 16.0934 0 0
3:54 pm 15:54 Mostly Cloudy 54 12.2 36 2.2 51 51 NNW 31 50 29.89 1012 10 16.0934 0 0
4:54 pm 16:54 Mostly Sunny 53 11.7 31 -0.6 43 43 NNW 28 44 29.92 1013 10 16.0934 0 0
5:54 pm 17:54 Sunny 52 11.1 28 -2.2 40 40 NNW 24 39 29.95 1014 10 16.0934 0 0
6:54 pm 18:54 Sunny 49 9.4 25 -3.9 39 39 N 22 35 29.99 1016 10 16.0934 0 0
7:54 pm 19:54 Clear 46 7.8 26 -3.3 46 46 N 17 28 30.05 1018 10 16.0934 0 0
8:54 pm 20:54 Clear 43 6.1 26 -3.3 51 51 NNW 7 11 30.1 1019 10 16.0934 0 0
9:54 pm 21:54 Clear 41 5 25 -3.9 53 53 NNW 7 11 30.13 1020 10 16.0934 0 0
10:54 pm 22:54 Clear 33 0.6 23 -5 66 66 Calm 30.16 1022 10 16.0934 0 0
11:54 pm 23:54 Clear 36 2.2 24 -4.4 62 62 NNW 3 6 30.18 1022 10 16.0934 0 0

Powered by AerisWeather